| time (UTC) | temp F | wind direction | speed MPH | gust MPH | rain 1hr in | rain 24hr in | rain mn in | humidity % | barometer mb |
| 20260502223018 | 48 | 34 | 0.0 | 6.0 | 0.00 | 0.01 | 0.00 | 69 | 1016.5 |
| 20260502221517 | 48 | 333 | 1.0 | 6.0 | 0.00 | 0.01 | 0.00 | 69 | 1016.5 |
| 20260502220016 | 48 | 265 | 0.0 | 4.0 | 0.00 | 0.01 | 0.00 | 69 | 1016.6 |
| 20260502214524 | 47 | 333 | 2.0 | 7.0 | 0.00 | 0.01 | 0.00 | 69 | 1016.7 |
| 20260502213015 | 48 | 333 | 1.0 | 4.0 | 0.00 | 0.01 | 0.00 | 70 | 1016.6 |
| 20260502211525 | 48 | 264 | 2.0 | 7.0 | 0.00 | 0.01 | 0.00 | 70 | 1016.6 |
| 20260502210025 | 48 | 308 | 2.0 | 6.0 | 0.00 | 0.01 | 0.00 | 70 | 1016.7 |
| 20260502204513 | 48 | 328 | 3.0 | 6.0 | 0.00 | 0.01 | 0.00 | 70 | 1016.7 |
| 20260502203011 | 48 | 242 | 1.0 | 3.0 | 0.00 | 0.01 | 0.00 | 70 | 1016.8 |
| 20260502201512 | 48 | 278 | 1.0 | 6.0 | 0.00 | 0.01 | 0.00 | 70 | 1016.9 |
| 20260502200008 | 48 | 358 | 1.0 | 6.0 | 0.00 | 0.01 | 0.00 | 70 | 1017.2 |
| 20260502194506 | 48 | 309 | 1.0 | 5.0 | 0.00 | 0.01 | 0.00 | 70 | 1017.2 |
| 20260502193005 | 48 | 37 | 3.0 | 8.0 | 0.00 | 0.01 | 0.00 | 70 | 1017.4 |
| 20260502191505 | 48 | 319 | 3.0 | 6.0 | 0.00 | 0.01 | 0.00 | 70 | 1017.5 |
| 20260502190012 | 48 | 275 | 1.0 | 4.0 | 0.00 | 0.01 | 0.00 | 71 | 1017.6 |
| 20260502184502 | 47 | 253 | 2.0 | 8.0 | 0.00 | 0.01 | 0.00 | 71 | 1017.6 |
| 20260502183002 | 48 | 278 | 1.0 | 4.0 | 0.00 | 0.01 | 0.00 | 71 | 1017.7 |
| 20260502181600 | 47 | 212 | 1.0 | 6.0 | 0.00 | 0.01 | 0.00 | 71 | 1017.7 |
| 20260502180105 | 47 | 278 | 1.0 | 5.0 | 0.00 | 0.01 | 0.00 | 71 | 1017.8 |
| 20260502163110 | 46 | 255 | 1.0 | 5.0 | 0.00 | 0.01 | 0.00 | 72 | 1018.2 |
| 20260502161555 | 47 | 304 | 2.0 | 10.0 | 0.00 | 0.01 | 0.00 | 72 | 1018.3 |
| 20260502151551 | 44 | 314 | 2.0 | 5.0 | 0.00 | 0.01 | 0.00 | 72 | 1018.3 |
| 20260502123034 | 41 | 333 | 0.0 | 3.0 | 0.00 | 0.01 | 0.00 | 73 | 1018.4 |
| 20260502121528 | 40 | 312 | 0.0 | 2.0 | 0.00 | 0.01 | 0.00 | 72 | 1018.5 |
| 20260502114529 | 38 | 347 | 0.0 | 2.0 | 0.00 | 0.01 | 0.00 | 72 | 1018.4 |
| 20260502113024 | 37 | 350 | 0.0 | 1.0 | 0.00 | 0.01 | 0.00 | 71 | 1018.3 |
| 20260502111519 | 35 | 10 | 0.0 | 0.0 | 0.00 | 0.01 | 0.00 | 71 | 1018.2 |
| 20260502110019 | 34 | 10 | 0.0 | 0.0 | 0.00 | 0.01 | 0.00 | 71 | 1018.1 |
| 20260502104520 | 35 | 10 | 0.0 | 0.0 | 0.00 | 0.01 | 0.00 | 71 | 1018.0 |
| 20260502103013 | 35 | 10 | 0.0 | 0.0 | 0.00 | 0.01 | 0.00 | 71 | 1018.1 |
| 20260502101510 | 36 | 10 | 0.0 | 0.0 | 0.00 | 0.01 | 0.00 | 71 | 1017.9 |
| 20260502091506 | 36 | 10 | 0.0 | 1.0 | 0.00 | 0.01 | 0.00 | 71 | 1017.7 |
| 20260502080105 | 37 | 21 | 0.0 | 2.0 | 0.00 | 0.01 | 0.00 | 71 | 1017.6 |
| 20260502070059 | 37 | 5 | 0.0 | 0.0 | 0.00 | 0.01 | 0.00 | 71 | 1017.7 |
| 20260502064614 | 37 | 5 | 0.0 | 1.0 | 0.00 | 0.01 | 0.00 | 71 | 1017.7 |
| 20260502063054 | 37 | 30 | 0.0 | 1.0 | 0.00 | 0.01 | 0.00 | 71 | 1017.9 |
| 20260502061544 | 37 | 52 | 0.0 | 1.0 | 0.00 | 0.01 | 0.00 | 71 | 1018.1 |
| 20260502060046 | 37 | 72 | 0.0 | 0.0 | 0.00 | 0.01 | 0.00 | 71 | 1018.3 |
| 20260502054538 | 37 | 72 | 0.0 | 1.0 | 0.00 | 0.01 | 0.00 | 71 | 1018.3 |
| 20260502053034 | 38 | 348 | 0.0 | 4.0 | 0.00 | 0.01 | 0.00 | 71 | 1018.3 |
| 20260502051534 | 38 | 64 | 0.0 | 2.0 | 0.00 | 0.01 | 0.00 | 71 | 1018.2 |
| 20260502050030 | 38 | 34 | 0.0 | 2.0 | 0.00 | 0.01 | 0.00 | 71 | 1018.0 |
| 20260502044525 | 38 | 32 | 0.0 | 1.0 | 0.00 | 0.01 | 0.00 | 71 | 1017.9 |
| 20260502043022 | 38 | 32 | 0.0 | 1.0 | 0.00 | 0.01 | 0.00 | 71 | 1017.9 |
| 20260502041526 | 38 | 65 | 0.0 | 1.0 | 0.00 | 0.01 | 0.00 | 71 | 1017.7 |
| 20260502040021 | 38 | 65 | 0.0 | 2.0 | 0.00 | 0.01 | 0.00 | 71 | 1017.8 |
| 20260502034514 | 38 | 333 | 0.0 | 2.0 | 0.00 | 0.01 | 0.01 | 71 | 1017.7 |
| 20260502033021 | 38 | 56 | 0.0 | 1.0 | 0.00 | 0.01 | 0.01 | 71 | 1017.9 |
| 20260502031507 | 38 | 51 | 0.0 | 4.0 | 0.00 | 0.01 | 0.01 | 71 | 1017.7 |
| 20260502030005 | 39 | 51 | 2.0 | 5.0 | 0.00 | 0.01 | 0.01 | 71 | 1017.8 |
| 20260502024506 | 39 | 60 | 0.0 | 4.0 | 0.00 | 0.01 | 0.01 | 71 | 1017.8 |
| 20260502023104 | 39 | 82 | 1.0 | 4.0 | 0.00 | 0.01 | 0.01 | 71 | 1017.5 |
| 20260502021555 | 39 | 84 | 1.0 | 4.0 | 0.00 | 0.01 | 0.01 | 71 | 1017.3 |
| 20260502020050 | 39 | 61 | 0.0 | 1.0 | 0.00 | 0.01 | 0.01 | 71 | 1017.0 |
| 20260502014547 | 40 | 75 | 0.0 | 2.0 | 0.00 | 0.01 | 0.01 | 71 | 1016.9 |
| 20260502013050 | 40 | 74 | 0.0 | 2.0 | 0.01 | 0.01 | 0.01 | 71 | 1016.6 |
| 20260502011541 | 40 | 72 | 0.0 | 2.0 | 0.01 | 0.01 | 0.01 | 71 | 1016.6 |
| 20260502010037 | 40 | 79 | 0.0 | 3.0 | 0.01 | 0.01 | 0.01 | 71 | 1016.4 |
| 20260502004540 | 40 | 75 | 0.0 | 2.0 | 0.01 | 0.01 | 0.01 | 71 | 1016.3 |
| 20260502003028 | 40 | 62 | 1.0 | 3.0 | 0.00 | 0.00 | 0.00 | 71 | 1016.2 |
| 20260502001525 | 42 | 41 | 1.0 | 3.0 | 0.00 | 0.00 | 0.00 | 71 | 1016.1 |
| 20260502000023 | 43 | 91 | 0.0 | 3.0 | 0.00 | 0.00 | 0.00 | 71 | 1016.0 |
| 20260501234517 | 43 | 68 | 0.0 | 2.0 | 0.00 | 0.00 | 0.00 | 71 | 1015.7 |
| 20260501233015 | 44 | 66 | 0.0 | 4.0 | 0.00 | 0.00 | 0.00 | 71 | 1015.4 |
| 20260501231512 | 44 | 349 | 0.0 | 3.0 | 0.00 | 0.00 | 0.00 | 71 | 1015.3 |
| 20260501230020 | 44 | 58 | 0.0 | 3.0 | 0.00 | 0.00 | 0.00 | 71 | 1015.3 |
| 20260501224509 | 44 | 73 | 1.0 | 4.0 | 0.00 | 0.00 | 0.00 | 71 | 1015.3 |